Regional Weather Roundup
Issued by NWS

Home | Current Version | Previous Version | Text Only | Print | Product List | Glossary Off
Versions: 1 2 3 4 5 6 7 8 9 10 11 12 13 14 15 16 17 18 19 20 21 22 23 24 25 26 27 28 29 30 31 32 33 34 35 36 37 38 39 40 41 42 43 44 45 46 47 48 49 50

000
ASUS43 KMKX 200600
RWRWI

WISCONSIN REGIONAL WEATHER ROUNDUP
NATIONAL WEATHER SERVICE MILWAUKEE/SULLIVAN WI
1200 AM CST FRI JAN 20 2017

NOTE: "FAIR" INDICATES FEW OR NO CLOUDS BELOW 12,000 FEET WITH NO
SIGNIFICANT WEATHER AND/OR OBSTRUCTIONS TO VISIBILITY.

WIZ001-002-006>008-014>016-023>028-200700-
NORTHWEST WISCONSIN

CITY           SKY/WX    TMP DP  RH WIND       PRES   REMARKS
SUPERIOR ARPT  CLOUDY    28  28 100 CALM      29.70F FOG
ASHLAND          N/A     29  27  92 S6        29.72F WCI  23
6HR MIN TEMP:  26; 6HR MAX TEMP:  40;

HAYWARD        CLOUDY    35  31  85 E5        29.71S WCI  31
6HR MIN TEMP:  29; 6HR MAX TEMP:  36;

SIREN          CLOUDY    37  31  81 SE5       29.70S WCI  33
CUMBERLAND     CLOUDY    34  32  93 SE9       29.70F WCI  26
RICE LAKE      CLOUDY    35  32  90 E5        29.73S WCI  31
CHETEK         NOT AVBL
LADYSMITH      CLOUDY    35  32  90 SE8       29.76R WCI  28
EAU CLAIRE     NOT AVBL
MENOMONIE        N/A    N/A N/A N/A MISG        N/A
NEW RICHMOND   DRIZZLE   35  33  93 SE6       29.69F WCI  30
OSCEOLA        CLOUDY    36  32  87 E6        29.71F WCI  31
$$

WIZ003>005-009-010-017-018-200700-
NORTH CENTRAL WISCONSIN

CITY           SKY/WX    TMP DP  RH WIND       PRES   REMARKS
MANITOWISH WTR NOT AVBL
ARBOR VITAE    CLOUDY    29  28  96 CALM      29.74S FOG
WOODRUFF       CLOUDY    29  28  96 CALM      29.74S FOG
RHINELANDER    MOCLDY    29  29 100 CALM      29.75S FOG
6HR MIN TEMP:  27; 6HR MAX TEMP:  37;

EAGLE RIVER    CLOUDY    26  26 100 CALM      29.74F FOG
LAND O LAKES   CLOUDY    26  26  99 CALM      29.76F FOG
PHILLIPS       CLOUDY    31  29  95 CALM      29.73F
6HR MIN TEMP:  30; 6HR MAX TEMP:  36;

TOMAHAWK       FOG       30  29  97 CALM      29.77S VSB 1
MEDFORD        CLOUDY    32  31  98 SE6       29.75S FOG     WCI  26
MERRILL        CLOUDY    31  31 100 CALM        N/A  FOG
6HR MIN TEMP:  31; 6HR MAX TEMP:  32;

$$

WIZ029-030-035-036-043>047-200700-
CENTRAL WISCONSIN

CITY           SKY/WX    TMP DP  RH WIND       PRES   REMARKS
WAUSAU         CLOUDY    31  31 100 CALM      29.75F FOG
6HR MIN TEMP:  31; 6HR MAX TEMP:  32;

MOSINEE        MIX PCPN  32  32 100 CALM      29.77F
MARSHFIELD     LGT RAIN  33  31  92 E7        29.73F FOG     WCI  27
6HR MIN TEMP:  31; 6HR MAX TEMP:  33; 6HR PCP:  0.02;

STEVENS POINT  MIX PCPN  30  30 100 E3        29.78F
WAUPACA        LGT RAIN  33  32  95 CALM      29.79F
WAUTOMA        MIX PCPN  32  32 100 NE5       29.77F FOG     WCI  27
6HR MIN TEMP:  32; 6HR MAX TEMP:  32; 6HR PCP:  0.02;

WISC RAPIDS    NOT AVBL
CAMP DOUGLAS   NOT AVBL
$$

WIZ011>013-019>022-031-037>040-048>050-200700-
NORTHEAST WISCONSIN

CITY           SKY/WX    TMP DP  RH WIND       PRES   REMARKS
ANTIGO         CLOUDY    30  30 100 S7        29.77S FOG     WCI  23
SHAWANO        CLOUDY    32  32  97 CALM      29.80F FOG
OCONTO         NOT AVBL
STURGEON BAY   FOG       33  32  96 SE3       29.81F VSB 1/4
6HR MIN TEMP:  31; 6HR MAX TEMP:  33;

GREEN BAY      FOG       34  34 100 E3        29.80F VSB 1/2
6HR MIN TEMP:  33; 6HR MAX TEMP:  34;

MANITOWOC      NOT AVBL
APPLETON       CLOUDY    32  32 100 CALM      29.78S FOG
CLINTONVILLE   CLOUDY    32  32 100 CALM      29.80F FOG
OSHKOSH        CLOUDY    33  31  92 CALM      29.77F FOG
6HR MIN TEMP:  32; 6HR MAX TEMP:  33; 6HR PCP: TRACE;

$$

WIZ032>034-041-042-053>061-200700-
SOUTHWEST WISCONSIN

CITY           SKY/WX    TMP DP  RH WIND       PRES   REMARKS
LA CROSSE      LGT RAIN  38  34  85 SE5       29.72F FOG     WCI  34
6HR MIN TEMP:  38; 6HR MAX TEMP:  40; 6HR PCP:  0.11;

SPARTA         RAIN      34  33  99 E7        29.74F WCI  28
VIROQUA        CLOUDY    34  34 100 E7        29.70F VSB 1   WCI  28
6HR MIN TEMP:  34; 6HR MAX TEMP:  35; 6HR PCP:  0.04;

BOSCOBEL       CLOUDY    36  35  96 NE3       29.70F FOG
6HR MIN TEMP:  36; 6HR MAX TEMP:  37; 6HR PCP:  0.11;

PRAIRIE DU CHI CLOUDY    36  35  96 CALM      29.70F FOG
PLATTEVILLE    CLOUDY    36  36 100 E8        29.67F WCI  29
$$

WIZ056-057-062-063-064-067-068-200700-
SOUTH CENTRAL WISCONSIN

CITY           SKY/WX    TMP DP  RH WIND       PRES   REMARKS
REEDSBURG      RAIN      34  34 100 E3        29.74F
BARABOO/DELLS  LGT RAIN  33  33  99 E7        29.74F VSB 3/4 WCI  27
LONE ROCK      CLOUDY    37  34  87 E9        29.71F FOG     WCI  31
MINERAL POINT  CLOUDY    36  36 100 E10       29.68F FOG     WCI  28
MADISON        RAIN      35  34  96 E9        29.73F FOG     WCI  28
6HR MIN TEMP:  35; 6HR MAX TEMP:  36; 6HR PCP:  0.29;

MIDDLETON      CLOUDY    36  36 100 E8        29.73F WCI  30
WATERTOWN      RAIN      34  34 100 NE3       29.76F
MONROE         FOG       34  34 100 E8        29.69F VSB 1/2 WCI  27
JANESVILLE     RAIN      36  36 100 NE9       29.71F WCI  29
$$

WIZ051-052-058>065-066-070>072-200700-
SOUTHEAST WISCONSIN

CITY           SKY/WX    TMP DP  RH WIND       PRES   REMARKS
MILWAUKEE      LGT RAIN  38  36  92 E8        29.75F FOG     WCI  32
6HR MIN TEMP:  36; 6HR MAX TEMP:  38; 6HR PCP:  0.07;

WAUKESHA       RAIN      34  34 100 E3        29.77F
MILWAUKEE/TIMM DRIZZLE   36  34  93 E3        29.78F
RACINE         RAIN      38  36  92 E7        29.76F FOG     WCI  33
6HR MIN TEMP:  35; 6HR MAX TEMP:  38; 6HR PCP:  0.12;

KENOSHA        LGT RAIN  37  36  96 E7        29.73F VSB 3/4 WCI  32
6HR MIN TEMP:  36; 6HR MAX TEMP:  38; 6HR PCP:  0.24;

FOND DU LAC    LGT RAIN  35  32  88 E3        29.77F FOG
6HR MIN TEMP:  33; 6HR MAX TEMP:  35; 6HR PCP:  0.01;

SHEBOYGAN      FOG       34  33  96 NE3       29.78F VSB 1/4
6HR MIN TEMP:  32; 6HR MAX TEMP:  34; 6HR PCP: TRACE;

WEST BEND      LGT RAIN  34  34 100 E3        29.78S VSB 1/4
JUNEAU         DRIZZLE   34  33  97 CALM      29.77F
$$

LSZ147-162-200700-
LAKE SUPERIOR

STATION/POSITION TIME  TEMP    WIND        PRES    WAVE
                       AIR SEA DIR/SP/G            HT/PER
                 (UTC) (F)     (DEG/KT/KT) (MB)    (FT/S)
DEVILS ISLAND    0500   40     220/  7/  8 1006.7F
PORT WING        0530   36     150/  3/  4 1006.4F
SAXON HARBOR     0540   32      CALM  /  3 1006.4F
$$

LMZ867-665-643>646-200700-
LAKE MICHIGAN

STATION/POSITION TIME  TEMP    WIND        PRES    WAVE
                       AIR SEA DIR/SP/G            HT/PER
                 (UTC) (F)     (DEG/KT/KT) (MB)    (FT/S)
NORTHPORT PIER   0540   33        CALM     1010.2S
SISTER BAY       0505   33        CALM       N/A
ALGOMA LAKESHORE 0454             CALM       N/A
KEWAUNEE LAKESHO 0530   33      40/  2/  4 1009.1F
SHEBOYGAN LAKESH 0500   36     100/  3/  3 1009.6F
PORT WASHINGTON  0530   36      30/  6/  7 1009.5F
MILWAUKEE LAKESH 0530   36      50/  3/  3   N/A
KENOSHA   LAKESH 0500   36      90/ 11/ 12 1008.5
$$

TC  - TEMPERATURE IN CELSIUS
VSB - VISIBILITY IN STATUTE MILES
WCI - WIND CHILL INDEX
HX  - HEAT INDEX




USA.gov is the U.S. government's official web portal to all federal, state and local government web resources and services.